Location: Unspecified
(41.1637°N, 24.2901°E)
Time: 19:23:44
(UTC+01:00)

Envisat - Visible Passes

Search period start: 07 March 2021 00:00
Search period end: 17 March 2021 00:00
Orbit: 764 x 766 km, 98.1° (Epoch: 07 March)

Date Brightness Start Highest point End Pass type
(mag) Time Alt. Az. Time Alt. Az. Time Alt. Az.
07 Mar 6.2 03:36:36 10° ENE 03:38:02 11° E 03:39:27 10° ESE visible
07 Mar 3.0 05:12:33 10° N 05:17:39 82° WNW 05:22:43 10° SSW visible
08 Mar 4.2 04:35:55 10° NNE 04:40:47 45° E 04:45:37 10° S visible
09 Mar 5.7 04:00:00 10° NE 04:03:43 20° E 04:07:25 10° SE visible
10 Mar 3.2 05:01:07 10° NNE 05:06:14 79° ESE 05:11:18 10° S visible
11 Mar 4.7 04:24:39 10° NNE 04:29:19 35° E 04:33:55 10° SSE visible
12 Mar 6.0 03:49:07 10° NE 03:52:11 16° E 03:55:13 10° SE visible
13 Mar 3.6 04:49:44 10° NNE 04:54:47 62° E 04:59:48 10° S visible
14 Mar 5.2 04:13:28 10° NE 04:17:48 28° E 04:22:07 10° SSE visible
15 Mar 6.1 03:38:37 10° ENE 03:40:37 12° E 03:42:37 10° ESE visible
16 Mar 4.1 04:38:24 10° NNE 04:43:20 48° E 04:48:14 10° S visible
